Weather in Mordovskaya Kozlovka

Russia / Republic of Mordovia     54°27′44″N   43°18′40″E
temp.,
°C
wind,
m/s
gust,
m/s
humid.,
%
clouds,
%
prec.,
mm/h
press.,
hPa
HPBL,
m
8 march, mon
mon800:00−2wnw81484100 2.4 9931016
03:00−7wsw4109383 2.5 996249
06:00−10wsw5118988 0.1 998324
09:00−8wsw489369 0.1 999433
12:00−5sw4792100 0.3 999668
15:00−4w71183100 1.6 9991218
18:00−7wnw348990 0.3 100286
21:00−11wnw349274 0.3 100676
9 march, tue
tue900:00−14w33940 0.0 100722
03:00−15w23970 0.0 100923
06:00−14w239778 0.1 101084
09:00−12nw249489 0.2 1012257
12:00−10nnw348896 0.1 1012565
15:00−9nnw358798 0.2 1013668
18:00−12nnw3596100 0.3 1014110
21:00−14nnw3696100 0.6 1016178
10 march, wed
wed1000:00−18nw359897 0.1 1017110
03:00−21nw3610089 0.1 101995
06:00−21nw369993 0.1 1021135
09:00−20nnw469695 0.1 1023335
12:00−17nnw4690100 0.0 1024593
15:00−16nnw4687100 0.1 1024723
18:00−21n339496 0.0 102532
21:00−24nnw239751 0.0 102720
11 march, thu
thu1100:00−25nw23990 0.0 102821
03:00−26nw231000 0.0 102920
06:00−26wnw33980 0.0 103032
09:00−21wnw36940 0.0 1031235
12:00−15wnw459038 0.0 1030401
15:00−13wnw468960 0.0 1030469
18:00−16w349673 0.0 103054
21:00−18w349836 0.0 103144
12 march, fri
fri1200:00−20w231000 0.0 103223
03:00−21wsw23990 0.0 103320
06:00−22sw23960 0.0 103320
09:00−18ssw35900 0.0 1032170
12:00−13s46830 0.0 1031327
15:00−11s510800 0.0 1029451
18:00−14sse5128567 0.0 1027324
21:00−15s6148283 0.0 1026389